Regional Weather Roundup
Issued by NWS Upton, NY

Current Version | Previous Version | Graphics & Text | Print | Product List | Glossary Off
Versions: 1 2 3 4 5 6 7 8 9 10 11 12 13 14 15 16 17 18 19 20 21 22 23 24 25 26 27

000
ASUS41 KOKX 220008
RWROKX

Regional Weather Roundup
National Weather Service New York NY
700 PM EST SUN JAN 21 2018

Note: "FAIR" indicates few or no clouds below 12,000 feet with no
significant weather and/or obstructions to visibility.

NYZ071-072-176-178-NJZ106-104-220100-
New York City Metro Area

CITY           SKY/WX    TMP DP  RH WIND       PRES   REMARKS
Central Park   CLOUDY    50  33  52 CALM      30.18S
Bronx Bot Gard   N/A     46  30  53 E3        30.17S
Bronx Lehman C   N/A     48  32  53 E3          N/A
LaGuardia Arpt MOCLDY    49  31  49 E7        30.15F
Queens College   N/A     46  34  61 S5          N/A
Kennedy Intl   CLOUDY    42  34  73 S10       30.18S
Breezy Point     N/A     39 N/A N/A S10         N/A  WCI  32
Brooklyn Coll    N/A     46  32  57 S8          N/A
Staten Island    N/A     48  36  61 S3          N/A
Newark/Liberty CLOUDY    48  34  58 S6        30.17R
Teterboro      CLOUDY    49  31  49 CALM      30.15S
$$

NYZ177-179-078>081-220100-
Long Island New York

CITY           SKY/WX    TMP DP  RH WIND       PRES   REMARKS
Jones Beach      N/A     39 N/A N/A S7          N/A  WCI  34
Wantagh          N/A     41  32  70 S2          N/A
Matinecock Pt    N/A     45 N/A N/A SE3         N/A
Farmingdale    FAIR      39  30  70 S3        30.19R
MacArthur/ISP  MOCLDY    36  27  69 SE5       30.18R WCI  32
Shirley        FAIR      33  28  81 CALM      30.19R
Mt Sinai Harb    N/A    N/A N/A N/A S2          N/A
Westhampton    FAIR      27  22  81 CALM      30.21R
East Hampton   FAIR      30  26  84 CALM      30.19R
Southold         N/A     34  30  86 S3          N/A
Montauk          N/A     35  30  82 CALM      30.19R
$$

NYZ052-065-067-220100-
Hudson Valley

CITY           SKY/WX    TMP DP  RH WIND       PRES   REMARKS
White Plains   MOCLDY    40  29  64 CALM      30.15S
Larchmont Harb   N/A     41 N/A N/A N6          N/A
Croton On Huds   N/A     39 N/A N/A N1          N/A
Somers           N/A     39  30  70 E2          N/A
Brewster         N/A     37  30  75 CALM        N/A
Newburgh       NOT AVBL
Montgomery     CLOUDY    36  31  82 CALM      30.14R
Otisville        N/A     39  32  75 NW1         N/A
Warwick          N/A     39  32  75 SE2         N/A
Suffern          N/A     41  32  70 N1          N/A
Poughkeepsie   CLOUDY    36  29  75 CALM      30.16R
Albany         MOCLDY    31  26  82 CALM      30.18R
$$

NJZ001-105-106-008-010-013-015-019>022-104-220100-
New Jersey

CITY           SKY/WX    TMP DP  RH WIND       PRES   REMARKS
Newark/Liberty CLOUDY    48  34  58 S6        30.17R
Teterboro      CLOUDY    49  31  49 CALM      30.15S
Caldwell       CLOUDY    46  33  60 CALM      30.17R
Somerville     CLOUDY    43  36  76 CALM      30.16R
Linden         CLOUDY    49  33  54 CALM      30.17R
Perth Amboy      N/A     48 N/A N/A S3          N/A
Sussex         CLOUDY    38  32  79 CALM      30.16R
Andover          N/A     37  33  85 CALM      30.16R
Trenton        CLOUDY    47  37  68 CALM      30.17R
Millville      CLOUDY    42  35  76 CALM      30.18S
Atlantic City  FAIR      45  36  70 SW5       30.19S
Wrightstown    CLOUDY    45  36  71 CALM      30.16R
Toms River     CLOUDY    43  36  76 CALM      30.19R
Belmar         CLOUDY    44  33  65 E3        30.19R
$$

PAZ047>061-062-071-220100-
Eastern Pennsylvania

CITY           SKY/WX    TMP DP  RH WIND       PRES   REMARKS
Philadelphia   FAIR      46  36  68 S5        30.18R
Allentown      CLOUDY    47  37  68 SE3       30.15S
Scranton       CLOUDY    40  34  79 E6        30.11F
$$

CTZ002-004>006-009-010-012-RIZ004-006-007-MAZ004-011-015-220100-
Southern New England

 In CT

CITY           SKY/WX    TMP DP  RH WIND       PRES   REMARKS
Bradley Intl   FAIR      39  29  67 N5        30.17R
Hartford       FAIR      34  29  82 S6        30.18R WCI  29
Danbury        CLOUDY    36  30  79 CALM      30.18R
Wtrbury/Oxford MOCLDY    35  28  75 CALM      30.17R
Norwalk Harbor   N/A     36 N/A N/A NE2         N/A
Bridgeport     MOCLDY    35  29  78 CALM      30.18S
Meriden        FAIR      31  27  85 CALM      30.18R
New Haven      MOCLDY    39  29  67 CALM      30.18R
Chester        FAIR      37  28  70 W5        30.18R WCI  34
Groton         FAIR      30  27  88 CALM      30.18R
Willimantic    FAIR      33  28  81 CALM      30.18R

 In RI

CITY           SKY/WX    TMP DP  RH WIND       PRES   REMARKS
Providence     FAIR      38  30  73 S6        30.18R WCI  33
Block Island   FAIR      36  30  79 SW7       30.19R WCI  30
Westerly       FAIR      37  32  82 SW3       30.19R

In MA

CITY           SKY/WX    TMP DP  RH WIND       PRES   REMARKS
Boston         MOCLDY    39  29  67 E3        30.18R
Worcester      FAIR      34  26  72 W3        30.14R
Westfield      FAIR      31  28  89 CALM      30.16R
Provincetown   FAIR      30  27  88 MISG        N/A
Nantucket      FAIR      32  31  96 CALM      30.19R
$$

ANZ330-335-338-340-345-350-353-355-220100-
Coastal Marine Observations


STATION/POSITION TIME  SKY/WX   TEMP    WIND        PRES    VSBY  WAVE
                                AIR SEA DIR/SP/G                  HT/PER
                 (UTC)          (F)     (DEG/KT/KT) (MB)    (MI)  (FT/S)
NY Harb Entrance 2350            42 40  180/  8/  8 1021.9          2/ 7
20 S Fire Island 2350            43 41  210/  4/  4 1022.5          2/ 7
15 E Barnegat Li 2330               43                N/A           2/ 7
Hudson Canyon    2350            47 50  280/  4/  4 1022.2          2/ 7
Kings Point      2330            38 34  230/  2/  3 1022.4
Execution Rocks  NOT AVBL
Western LI Sound NOT AVBL
Central LI Sound NOT AVBL
Robbins Reef     2336            49     190/  6/  6 1022.0
$$


>>>>>>>>>>>>>>>>>>>>>>>>>>>> KEY <<<<<<<<<<<<<<<<<<<<<<<<<<<
>                                                          <
>     SKY/WX - Sky Condition/Present Weather               <
>     TMP    - Temperature in Fahrenheit                   <
>     DP     - Dew Point in Fahrenheit                     <
>     RH     - Relative Humidity in Percent                <
>     WIND   - Direction (from) and Speed in MPH           <
>     PRES   - Mean Sea Level Pressure (inches of Hg)      <
>     WCI    - Wind Chill Index                            <
>     VSB    - Visibility in Miles                         <
>     HX     - Heat Index                                  <
>     TC     - Temperature in Celsius                      <
>     VRB    - Varibale Wind Direction                     <
>                                                          <
>>>>>>>>>>>>>>>>>>>>>>>>>>>> KEY <<<<<<<<<<<<<<<<<<<<<<<<<<<




USA.gov is the U.S. government's official web portal to all federal, state and local government web resources and services.